This demonstration page uses our WeatherBlox Daily Observations layout. Learn more.

Left ArrowRight Arrow

Hourly Observations for May 19, 2022

Temp ( °F °C ) Dew Point ( °F °C ) Humidity (%) Winds ( mph kmh ) Pressure ( in mb ) Visibility ( mi km ) Precip ( " mm )
12:59 am 00:59 Mostly Cloudy 67 19.4 57 13.9 71 71 SSE 12 19 29.88 1012 10 16 0.00 0.00
1:59 am 01:59 Mostly Cloudy 68 20 60 15.6 76 76 S 13 20 29.85 1011 10 16 0.00 0.00
2:59 am 02:59 Mostly Cloudy 70 21.1 60 15.6 71 71 S 10 17 29.81 1010 10 16 0.00 0.00
3:59 am 03:59 Mostly Cloudy 70 21.1 59 15 68 68 S 12 19 29.79 1009 10 16 0.00 0.00
4:59 am 04:59 Mostly Cloudy 70 21.1 57 13.9 64 64 SSW 12 19 29.77 1008 10 16 0.00 0.00
5:59 am 05:59 Mostly Cloudy 72 22.2 56 13.3 57 57 SSW 15 24 29.76 1008 10 16 0.00 0.00
6:59 am 06:59 Mostly Cloudy 72 22.2 59 15 64 64 SSW 13 20 29.78 1009 10 16 0.00 0.00
7:59 am 07:59 Mostly Cloudy 72 22.2 61 16.1 68 68 SSW 13 20 29.79 1009 10 16 0.00 0.00
8:59 am 08:59 Mostly Cloudy 76 24.4 63 17.2 64 64 SW 14 22 29.80 1009 10 16 0.00 0.00
9:59 am 09:59 Partly Cloudy 79 26.1 63 17.2 58 58 WSW 12 19 29.80 1009 10 16 0.00 0.00
10:59 am 10:59 Partly Cloudy 81 27.2 63 17.2 54 54 WSW 10 17 29.80 1009 10 16 0.00 0.00
11:59 am 11:59 Mostly Cloudy 83 28.3 64 17.8 53 53 W 9 15 29.79 1009 10 16 0.00 0.00
12:59 pm 12:59 Mostly Cloudy 83 28.3 62 16.7 49 49 W 13 20 29.78 1009 10 16 0.00 0.00
1:59 pm 13:59 Mostly Cloudy 86 30 63 17.2 46 46 W 10 17 29.77 1008 10 16 0.00 0.00
2:59 pm 14:59 Mostly Sunny 86 30 64 17.8 48 48 W 7 11 29.77 1008 10 16 0.00 0.00
3:59 pm 15:59 Mostly Cloudy 85 29.4 62 16.7 46 46 WNW 9 15 29.76 1008 10 16 0.00 0.00
4:59 pm 16:59 Mostly Cloudy 84 28.9 62 16.7 48 48 ENE 8 13 29.76 1008 10 16 0.00 0.00
5:59 pm 17:59 Mostly Sunny 87 30.6 63 17.2 45 45 Calm 29.76 1008 10 16 0.00 0.00
6:59 pm 18:59 Mostly Sunny 81 27.2 63 17.2 54 54 ENE 6 9 29.77 1008 10 16 0.00 0.00
7:59 pm 19:59 Partly Cloudy 79 26.1 64 17.8 60 60 E 5 7 29.78 1009 10 16 0.00 0.00
8:59 pm 20:59 Partly Cloudy 77 25 64 17.8 64 64 SE 5 7 29.82 1010 10 16 0.00 0.00
9:59 pm 21:59 Partly Cloudy 77 25 62 16.7 60 60 SE 5 7 29.85 1011 10 16 0.00 0.00
10:59 pm 22:59 Partly Cloudy 75 23.9 62 16.7 64 64 SSE 7 11 29.86 1011 10 16 0.00 0.00
11:59 pm 23:59 Mostly Clear 74 23.3 62 16.7 67 67 SSE 7 11 29.86 1011 10 16 0.00 0.00

Powered by AerisWeather